Location: Baggett Branch
(32.6074°N, 97.0167°W)
Time: 23:10:33
(UTC+00:00)

Exosat Rocket - Pass Details

Date: 10 February 2026
Orbit: 761 x 2512 km, 72.3° (Epoch: 11 March)

Event Time Altitude Azimuth Distance (km) Brightness Sun altitude
Rises 11:59:46 0° 343° (NNW) 3,556 6.7 -16.5°
Reaches altitude 10° 12:02:25 10° 346° (NNW) 2,475 5.9 -15.9°
Maximum altitude 12:07:44 69° 70° (ENE) 824 3.8 -14.8°
Drops below altitude 10° 12:12:42 10° 154° (SSE) 2,307 6.5 -13.8°
Sets 12:15:05 0° 156° (SSE) 3,292 7.3 -13.3°
